Regional Weather Roundup
Issued by NWS

Home | Current Version | Previous Version | Graphics & Text | Print | Product List | Glossary On
Versions: 1 2 3 4 5 6 7 8 9 10 11 12 13 14 15 16 17 18 19 20 21 22 23 24 25 26 27 28 29 30 31 32 33 34 35 36 37 38 39 40 41 42 43 44 45 46 47 48 49 50
000
ASUS43 KTOP 210559
RWRKS

WEATHER ROUNDUP FOR KANSAS
NATIONAL WEATHER SERVICE GOODLAND KS
100 AM CDT FRI JUL 21 2017

NOTE:  "FAIR" INDICATES FEW OR NO CLOUDS BELOW 12,000 FEET WITH NO
SIGNIFICANT WEATHER AND/OR OBSTRUCTIONS TO VISIBILITY.

KSZ001>006-013>018-027>032-041>047-210700-
NORTHWEST KANSAS

CITY           SKY/WX    TMP DP  RH WIND       PRES   REMARKS
GOODLAND       CLEAR     81  60  48 S13       29.97S
6HR MIN TEMP:  76; 6HR MAX TEMP:  94;

HAYS           CLEAR     84  59  42 S13       29.92R
HILL CITY      CLEAR     83  59  44 S9        29.90S
6HR MIN TEMP:  83; 6HR MAX TEMP: 102;

RUSSELL        CLEAR     83  59  44 S13       29.91R
6HR MIN TEMP:  83; 6HR MAX TEMP: 100;

$$

KSZ061>065-074>080-084>089-210700-
SOUTHWEST KANSAS

CITY           SKY/WX    TMP DP  RH WIND       PRES   REMARKS
DODGE CITY     CLEAR     83  58  42 S16       29.98R
6HR MIN TEMP:  82; 6HR MAX TEMP:  99;

ELKHART          N/A     75  47  37 S12         N/A
GARDEN CITY    CLEAR     79  56  45 S15       29.97S
6HR MIN TEMP:  79; 6HR MAX TEMP:  96;

LIBERAL        CLEAR     76  58  53 S12       30.00F
$$

KSZ066>073-081>083-090>101-210700-
SOUTHEAST KANSAS

CITY           SKY/WX    TMP DP  RH WIND       PRES   REMARKS
CHANUTE        CLEAR     83  72  69 S9        29.99R
6HR MIN TEMP:  83; 6HR MAX TEMP:  95;

COFFEYVILLE    CLEAR     80  74  81 S6        29.98S
6HR MIN TEMP:  80; 6HR MAX TEMP:  94;

HUTCHINSON     CLEAR     85  67  54 S13       29.95R
6HR MIN TEMP:  85; 6HR MAX TEMP: 101;

MEDICINE LODGE   N/A     83  61  47 SE8       29.96R
NEWTON         CLEAR     83  69  62 S13       29.98R
PARSONS        CLEAR     81  73  76 S5        30.00R
6HR MIN TEMP:  81; 6HR MAX TEMP:  93;

WICHITA INTL   CLEAR     86  70  58 S17G25    29.96R
6HR MIN TEMP:  85; 6HR MAX TEMP:  98;

WICHITA JABRA  CLEAR     83  69  62 S12       29.97R
6HR MIN TEMP:  83; 6HR MAX TEMP:  98;

WICHITA MCCONL CLEAR     84  69  58 S14       29.97R
WINFIELD       CLEAR     84  69  60 S15       29.98S
6HR MIN TEMP:  84; 6HR MAX TEMP:  97;

$$

KSZ007>012-019>026-033>040-048>060-102>105-210700-
NORTHEAST KANSAS

CITY           SKY/WX    TMP DP  RH WIND       PRES   REMARKS
CONCORDIA      CLEAR     84  66  54 S14       29.91R
6HR MIN TEMP:  84; 6HR MAX TEMP:  98;

EMPORIA        CLEAR     82  72  71 S15       29.96S
6HR MIN TEMP:  81; 6HR MAX TEMP:  95;

LAWRENCE       CLEAR     84  74  71 S9        29.95R
6HR MIN TEMP:  84; 6HR MAX TEMP:  97;

MANHATTAN      CLEAR     87  72  60 S12G21    29.92R
6HR MIN TEMP:  86; 6HR MAX TEMP: 101;

OLATHE IND     CLEAR     81  73  76 S10       29.98R
6HR MIN TEMP:  81; 6HR MAX TEMP:  94;

OLATHE EXE     CLEAR     81  74  79 S9        29.98R
6HR MIN TEMP:  81; 6HR MAX TEMP:  91;

SALINA         CLEAR     89  66  46 S15G24    29.91S
6HR MIN TEMP:  89; 6HR MAX TEMP: 103;

TOPEKA BILLARD CLEAR     84  74  71 S9        29.94S
6HR MIN TEMP:  84; 6HR MAX TEMP:  97;

TOPEKA FORBES  CLEAR     84  74  71 S12       29.95S
6HR MIN TEMP:  84; 6HR MAX TEMP:  97;

$$




USA.gov is the U.S. government's official web portal to all federal, state and local government web resources and services.